Location: ??????????
(48.5701°N, 37.7703°E)
Time: 19:17:24
(UTC+00:00)

Cosmos 1263 - Pass Details

Date: 14 July 2020
Orbit: 384 x 1341 km, 82.9° (Epoch: 11 August)

Event Time Altitude Azimuth Distance (km) Brightness Sun altitude
Rises 00:31:00 0° 350° (N) 2,322 8.6 -9.5°
Reaches altitude 10° 00:33:01 10° 350° (N) 1,429 7.5 -9.3°
Maximum altitude 00:36:01 87° 261° (W) 395 4.1 -9.0°
Drops below altitude 10° 00:39:05 10° 173° (S) 1,462 6.6 -8.7°
Enters shadow 00:40:43 - 173° (S) 2,183 7.5 -8.5°
